When you browse on this site, cookies collect data to enhance your experience and personalize the content and advertising you see.
Visit our Privacy Policy to learn more. By continuing to use the site, you agree to this use of cookies and data.
  • In Hungary
  • List of Countries
  • For 7 days
  • Water Temperature
  • Satellite Maps
  • Weather Map
  • News
  • Weather Widgets
  • user-avatar
    Login

    Hourly Weather Lincoln Park

    Today, 22 February, Friday

    Time Temperature Precipitation Wind Pressure Humidity
    00:00 -3°C° 0 mm 2 mps 753 mmHg 80%
    01:00 -3°C° 0 mm 2 mps 754 mmHg 79%
    02:00 -3°C° 0 mm 2 mps 754 mmHg 79%
    03:00 -3°C° 0 mm 2 mps 755 mmHg 78%
    04:00 -3°C° 0 mm 2 mps 755 mmHg 78%
    05:00 -4°C° 0 mm 2 mps 756 mmHg 78%
    06:00 -4°C° 0 mm 2 mps 756 mmHg 78%
    07:00 -3°C° 0 mm 2 mps 756 mmHg 74%
    08:00 -1°C° 0 mm 1 mps 757 mmHg 70%
    09:00 0°C° 0 mm 1 mps 757 mmHg 66%
    10:00 +1°C° 0 mm 1 mps 757 mmHg 63%
    11:00 +1°C° 0 mm 1 mps 757 mmHg 60%
    12:00 +1°C° 0 mm 2 mps 757 mmHg 56%
    13:00 +2°C° 0 mm 1 mps 757 mmHg 56%
    14:00 +3°C° 0 mm 1 mps 757 mmHg 56%
    15:00 +3°C° 0 mm 1 mps 756 mmHg 56%
    16:00 +2°C° 0 mm 1 mps 756 mmHg 61%
    17:00 +1°C° 0 mm 1 mps 756 mmHg 66%
    18:00 0°C° 0 mm 1 mps 756 mmHg 71%
    19:00 0°C° 0 mm 1 mps 756 mmHg 71%
    20:00 0°C° 0 mm 1 mps 756 mmHg 71%
    21:00 -2°C° 0 mm 2 mps 756 mmHg 72%
    22:00 -2°C° 0 mm 2 mps 756 mmHg 72%
    23:00 -2°C° 0 mm 3 mps 756 mmHg 72%

    Tomorrow, 23 February, Saturday

    Time Temperature Precipitation Wind Pressure Humidity
    00:00 -2°C° 0 mm 3 mps 755 mmHg 72%
    01:00 -2°C° 0 mm 3 mps 755 mmHg 72%
    02:00 -2°C° 0 mm 3 mps 754 mmHg 72%
    03:00 -2°C° 0 mm 3 mps 754 mmHg 73%
    04:00 -2°C° 0 mm 3 mps 753 mmHg 73%
    05:00 -2°C° 0 mm 3 mps 753 mmHg 73%
    06:00 -2°C° 0 mm 4 mps 752 mmHg 73%
    07:00 -2°C° 0 mm 4 mps 752 mmHg 71%
    08:00 -1°C° 0 mm 4 mps 751 mmHg 69%
    09:00 0°C° 0 mm 4 mps 750 mmHg 67%
    10:00 0°C° 0 mm 5 mps 749 mmHg 65%
    11:00 +1°C° 0 mm 5 mps 748 mmHg 64%
    12:00 +2°C° 0 mm 5 mps 747 mmHg 63%
    13:00 +3°C° 0.1 mm 4 mps 746 mmHg 70%
    14:00 +1°C° 0.1 mm 4 mps 745 mmHg 77%
    15:00 0°C° 0.1 mm 4 mps 744 mmHg 85%
    16:00 +1°C° 0.2 mm 4 mps 743 mmHg 88%
    17:00 +1°C° 0.2 mm 4 mps 742 mmHg 92%
    18:00 +1°C° 0.2 mm 4 mps 740 mmHg 96%
    19:00 +3°C° 0.2 mm 4 mps 739 mmHg 97%
    20:00 +3°C° 0.2 mm 4 mps 738 mmHg 97%
    21:00 +4°C° 0.2 mm 4 mps 737 mmHg 98%
    22:00 +5°C° 1 mm 4 mps 735 mmHg 98%
    23:00 +6°C° 1 mm 5 mps 733 mmHg 97%

    Day after tomorrow, 24 February, Sunday

    Time Temperature Precipitation Wind Pressure Humidity
    00:00 +7°C° 1 mm 6 mps 731 mmHg 97%
    01:00 +8°C° 0.7 mm 6 mps 730 mmHg 95%
    02:00 +9°C° 0.7 mm 7 mps 729 mmHg 93%
    03:00 +10°C° 0.7 mm 7 mps 728 mmHg 91%
    04:00 +9°C° 0 mm 7 mps 727 mmHg 84%
    05:00 +7°C° 0 mm 8 mps 727 mmHg 77%
    06:00 +6°C° 0 mm 8 mps 726 mmHg 71%
    07:00 +5°C° 0.1 mm 9 mps 726 mmHg 73%
    08:00 +5°C° 0.1 mm 9 mps 727 mmHg 76%
    09:00 +5°C° 0.1 mm 10 mps 727 mmHg 79%
    10:00 +3°C° 0.1 mm 10 mps 728 mmHg 74%
    11:00 +2°C° 0.1 mm 11 mps 729 mmHg 68%
    12:00 0°C° 0.1 mm 12 mps 729 mmHg 63%
    13:00 0°C° 0.1 mm 12 mps 731 mmHg 63%
    14:00 -1°C° 0.1 mm 12 mps 732 mmHg 63%
    15:00 -1°C° 0.1 mm 12 mps 733 mmHg 63%
    16:00 -2°C° 0 mm 12 mps 734 mmHg 62%
    17:00 -3°C° 0 mm 12 mps 735 mmHg 61%
    18:00 -5°C° 0 mm 12 mps 736 mmHg 61%
    19:00 -5°C° 0 mm 12 mps 737 mmHg 62%
    20:00 -6°C° 0 mm 12 mps 738 mmHg 63%
    21:00 -6°C° 0 mm 12 mps 739 mmHg 64%
    22:00 -6°C° 0 mm 11 mps 740 mmHg 63%
    23:00 -7°C° 0 mm 11 mps 741 mmHg 61%

    25 February, Monday

    Time Temperature Precipitation Wind Pressure Humidity
    00:00 -7°C° 0 mm 11 mps 742 mmHg 60%
    01:00 -7°C° 0 mm 10 mps 744 mmHg 59%
    02:00 -8°C° 0 mm 10 mps 745 mmHg 58%
    03:00 -8°C° 0 mm 9 mps 746 mmHg 57%
    04:00 -8°C° 0 mm 9 mps 747 mmHg 57%
    05:00 -8°C° 0 mm 8 mps 749 mmHg 57%
    06:00 -8°C° 0 mm 8 mps 750 mmHg 56%
    07:00 -10°C° 0 mm 8 mps 751 mmHg 54%
    08:00 -9°C° 0 mm 7 mps 752 mmHg 52%
    09:00 -9°C° 0 mm 7 mps 753 mmHg 50%
    10:00 -8°C° 0 mm 7 mps 754 mmHg 48%
    11:00 -8°C° 0 mm 6 mps 754 mmHg 46%
    12:00 -8°C° 0 mm 6 mps 755 mmHg 43%
    13:00 -6°C° 0 mm 5 mps 755 mmHg 43%
    14:00 -6°C° 0 mm 5 mps 755 mmHg 43%
    15:00 -6°C° 0 mm 5 mps 755 mmHg 42%
    16:00 -5°C° 0 mm 4 mps 755 mmHg 44%
    17:00 -7°C° 0 mm 4 mps 755 mmHg 46%
    18:00 -6°C° 0 mm 3 mps 755 mmHg 47%
    19:00 -6°C° 0 mm 3 mps 756 mmHg 49%
    20:00 -6°C° 0 mm 3 mps 756 mmHg 51%
    21:00 -7°C° 0 mm 3 mps 756 mmHg 53%
    22:00 -7°C° 0 mm 3 mps 756 mmHg 57%
    23:00 -7°C° 0 mm 3 mps 756 mmHg 61%

    26 February, Tuesday

    Time Temperature Precipitation Wind Pressure Humidity
    00:00 -8°C° 0 mm 3 mps 756 mmHg 65%
    01:00 -7°C° 0.1 mm 2 mps 756 mmHg 67%
    02:00 -7°C° 0.1 mm 2 mps 756 mmHg 70%
    03:00 -7°C° 0.1 mm 2 mps 756 mmHg 72%
    04:00 -7°C° 0.1 mm 2 mps 756 mmHg 72%
    05:00 -6°C° 0.1 mm 1 mps 757 mmHg 73%
    06:00 -6°C° 0.1 mm 1 mps 757 mmHg 73%
    07:00 -6°C° 0.1 mm 1 mps 757 mmHg 72%
    08:00 -6°C° 0.1 mm 1 mps 757 mmHg 71%
    09:00 -6°C° 0.1 mm 2 mps 758 mmHg 70%
    10:00 -6°C° 0 mm 2 mps 757 mmHg 67%
    11:00 -5°C° 0 mm 2 mps 757 mmHg 65%
    12:00 -4°C° 0 mm 2 mps 756 mmHg 62%
    13:00 -4°C° 0 mm 2 mps 756 mmHg 65%
    14:00 -5°C° 0 mm 3 mps 755 mmHg 68%
    15:00 -5°C° 0 mm 3 mps 755 mmHg 70%
    16:00 -5°C° 0.1 mm 4 mps 754 mmHg 74%
    17:00 -5°C° 0.1 mm 4 mps 754 mmHg 77%
    18:00 -7°C° 0.1 mm 5 mps 754 mmHg 80%
    19:00 -7°C° 0 mm 5 mps 753 mmHg 81%
    20:00 -7°C° 0 mm 5 mps 753 mmHg 82%
    21:00 -7°C° 0 mm 5 mps 753 mmHg 83%
    22:00 -7°C° 0 mm 5 mps 752 mmHg 83%
    23:00 -7°C° 0 mm 5 mps 751 mmHg 83%

    27 February, Wednesday

    Time Temperature Precipitation Wind Pressure Humidity
    00:00 -7°C° 0 mm 5 mps 750 mmHg 84%
    01:00 -6°C° 0 mm 5 mps 749 mmHg 84%
    02:00 -5°C° 0 mm 4 mps 748 mmHg 85%
    03:00 -5°C° 0 mm 4 mps 747 mmHg 85%
    04:00 -4°C° 0 mm 4 mps 747 mmHg 85%
    05:00 -4°C° 0 mm 3 mps 746 mmHg 85%
    06:00 -2°C° 0 mm 3 mps 745 mmHg 84%
    07:00 -1°C° 0 mm 3 mps 744 mmHg 84%
    08:00 -1°C° 0 mm 4 mps 744 mmHg 84%
    09:00 +1°C° 0 mm 4 mps 743 mmHg 84%
    10:00 +1°C° 0.2 mm 5 mps 742 mmHg 87%
    11:00 +2°C° 0.2 mm 5 mps 741 mmHg 90%
    12:00 +2°C° 0.2 mm 5 mps 741 mmHg 94%
    13:00 +3°C° 0.1 mm 5 mps 740 mmHg 93%
    14:00 +3°C° 0.1 mm 5 mps 740 mmHg 93%
    15:00 +3°C° 0.1 mm 5 mps 740 mmHg 93%
    16:00 +2°C° 0 mm 5 mps 740 mmHg 91%
    17:00 +1°C° 0 mm 5 mps 740 mmHg 89%
    18:00 0°C° 0 mm 5 mps 741 mmHg 87%
    19:00 -2°C° 0 mm 6 mps 742 mmHg 81%
    20:00 -3°C° 0 mm 6 mps 742 mmHg 75%
    21:00 -6°C° 0 mm 7 mps 743 mmHg 70%
    22:00 -6°C° 0 mm 7 mps 744 mmHg 67%
    23:00 -6°C° 0 mm 6 mps 745 mmHg 64%
    Show more